Hourly Data Report for July 19, 2021

KUGLUKTUK A
NUNAVUT
Current Station Operator: NAVCAN

67°49'00.000" N
115°08'38.000" W
22.60 m
2300903
71938
YCO

Download Data

Hourly Data (July 2021)
Hourly Data Report for July 19, 2021
TIME
LST
Temp Definition
°C
Dew Point Definition
°C
Rel Hum Definition
%
Precip. Amount Definition
mm

Wind Dir Definition
10's deg

Wind Spd Definition
km/h
Visibility Definition
km
Stn Press Definition
kPa
Hmdx Definition


Wind Chill Definition


Weather Definition


00:00 10.8 8.9 88   27 8 24.1 101.54     LegendNANA
01:00 10.4 8.7 89   30 9 19.3 101.57     LegendNANA
02:00 10.1 8.7 91   33 12 24.1 101.61     Mostly Cloudy
03:00 10.4 8.7 89   24 10 24.1 101.62     Rain
04:00 9.9 9.1 95   36 3 24.1 101.63     Rain
05:00 9.7 8.6 93   36 12 19.3 101.67     Rain
06:00 9.5 8.5 93   32 13 12.9 101.71     Rain
07:00 8.9 8.1 94   35 13 8.1 101.72     Rain Showers
08:00 9.0 8.3 95   34 15 6.4 101.73     Rain, Fog
09:00 9.5 8.3 92   35 14 19.3 101.75     LegendNANA
10:00 9.3 8.3 94   36 14 12.9 101.80     Rain
11:00 10.3 8.9 91   32 10 19.3 101.81     Cloudy
12:00 11.4 8.6 83   32 9 24.1 101.81     LegendNANA
13:00 14.0 9.4 74   31 8 24.1 101.80     LegendNANA
14:00 13.0 8.6 74   2 9 24.1 101.80     Cloudy
15:00 13.6 8.2 70   31 7 24.1 101.81     LegendNANA
16:00 14.4 8.6 68   31 10 24.1 101.80     LegendNANA
17:00 14.1 8.5 69   33 17 24.1 101.81     Cloudy
18:00 14.1 8.7 70   36 13 24.1 101.81     LegendNANA
19:00 13.3 8.9 74   35 9 24.1 101.82     LegendNANA
20:00 12.1 8.3 77   36 14 24.1 101.82     Cloudy
21:00 12.2 9.1 81   2 8 24.1 101.82     LegendNANA
22:00 12.2 9.1 81   16 6 24.1 101.81     LegendNANA
23:00 11.1 8.8 86   19 8 24.1 101.81     Mainly Clear

Notes on Data Quality.

Legend

  • E = Estimated
  • M = Missing
  • NA = Not Available*
  • [empty] = Indicates an unobserved value
Date modified: